Location: Gajan
(43.0218°N, 1.1244°E)
Time: 15:42:54
(UTC+00:00)

Cosmos 1455 - Pass Details

Date: 22 April 2021
Orbit: 498 x 521 km, 82.5° (Epoch: 12 May)

Event Time Altitude Azimuth Distance (km) Brightness Sun altitude
Rises 19:39:51 0° 197° (SSW) 2,586 5.6 -9.8°
Reaches altitude 10° 19:42:00 10° 202° (SSW) 1,704 4.8 -10.2°
Maximum altitude 19:45:39 54° 280° (W) 614 3.0 -10.8°
Drops below altitude 10° 19:49:20 10° 359° (N) 1,711 5.3 -11.4°
Sets 19:51:29 0° 4° (N) 2,598 6.1 -11.7°
